Content
SEND FEEDBACK

Daily
Averages
Monthly
Summary
United States of America

CHICAGO, ILLINOIS


Home > North America > United States > Illinois
Elevation: 205 meters     Latitude: 41 59N     Longitude: 087 54W

WEATHER
 
SELECT A DAY
Number of Records: 194,984;   Date Range: 7/8/95 - 8/28/14
 
SHARE

PRINT THIS DATA

[ ← Previous Day ]
WEATHER ALMANAC - 23 JULY, 2013
[ Next Day → ]
[ °F ]   °C
Weather ElementAverageHighLow
Temperature21.8 °C24.4 °C (10:52 am)17.2 °C (11:52 pm)
Dewpoint15.3 °C18 °C (9:24 am)12.8 °C (6:52 pm)
Humidity67.1 %76 % (1:52 am)57 % (2:52 pm)
Barometer1010.5 hPa1015.6 hPa (10:52 pm)1005.4 hPa (1:52 am)
Wind Speed12.4 km/h27.8 km/h (6:52 pm)
Wind Gust37 km/h (6:52 pm)
Weather ElementAverage
Visibility16.1 km
Wind DirectionSSE (148.1 °)

Weather ElementTotal
Precipitation0.76 mm
Cooling Degree Days2.5 (Base 18.3)
Growing Degree Days10.8 (Base 10)
Averaged from 26 records on 23 July, 2013
WEATHER CONDITIONS BREAKOUT
WIND DIRECTION BREAKOUT
WEATHER BY HOUR - 23 JULY, 2013
[ °F ]   °C
Local TimeTemperatureDewpointHumidityBarometerVisibilityWind DirectionWind SpeedGust SpeedPrecipitationEventsConditions
1:52 AM22.2 °C17.8 °C76 %1005.4 hPa16.1 kmSouth (170°)5.6 km/h0.76 mmMostly Cloudy
2:52 AM22.8 °C16.1 °C66 %1005.8 hPa16.1 kmWest (270°)7.4 km/hPartly Cloudy
3:52 AM22.2 °C16.1 °C68 %1005.8 hPa16.1 kmCalmClear
4:52 AM21.1 °C16.1 °C73 %1006.8 hPa16.1 kmCalmClear
5:52 AM20.6 °C16.1 °C75 %1007.8 hPa16.1 kmCalmClear
6:52 AM21.7 °C16.1 °C70 %1008.1 hPa16.1 kmWest (280°)11.1 km/hClear
7:52 AM22.8 °C17.2 °C71 %1008.1 hPa16.1 kmNW (320°)9.3 km/hScattered Clouds
8:01 AM22 °C17 °C73 %1008.8 hPa16.1 kmNW (310°)11.1 km/hMostly Cloudy
8:52 AM23.3 °C17.8 °C71 %1009.1 hPa16.1 kmNorth (350°)11.1 km/hMostly Cloudy
9:24 AM23 °C18 °C73 %1009.5 hPa16.1 kmNorth (350°)14.8 km/hMostly Cloudy
9:52 AM22.8 °C16.7 °C68 %1009.5 hPa16.1 kmNorth (360°)14.8 km/hOvercast
10:42 AM24 °C16 °C61 %1010.5 hPa16.1 kmNorth (350°)13 km/hOvercast
10:52 AM24.4 °C15.6 °C58 %1010.2 hPa16.1 kmNNW (340°)11.1 km/hMostly Cloudy
11:52 AM23.3 °C15 °C59 %1010.5 hPa16.1 kmNNE (20°)13 km/hOvercast
12:52 PM23.9 °C15.6 °C60 %1010.8 hPa16.1 kmENE (60°)13 km/hMostly Cloudy
1:52 PM23.9 °C15.6 °C60 %1011.2 hPa16.1 kmNNE (30°)9.3 km/hPartly Cloudy
2:52 PM23.9 °C15 °C57 %1011.5 hPa16.1 kmNE (40°)16.7 km/h25.9 km/hScattered Clouds
3:52 PM23.3 °C15.6 °C62 %1011.9 hPa16.1 kmNE (40°)22.2 km/hMostly Cloudy
4:52 PM21.7 °C14.4 °C63 %1011.9 hPa16.1 kmNE (40°)24.1 km/h35.2 km/hMostly Cloudy
5:52 PM21.1 °C13.3 °C61 %1012.5 hPa16.1 kmNNE (20°)22.2 km/h35.2 km/hClear
6:52 PM20.6 °C12.8 °C61 %1012.9 hPa16.1 kmNE (40°)27.8 km/h37 km/hClear
7:52 PM19.4 °C13.3 °C68 %1012.9 hPa16.1 kmNNE (30°)22.2 km/h35.2 km/hPartly Cloudy
8:52 PM18.3 °C13.3 °C73 %1013.9 hPa16.1 kmNNE (30°)16.7 km/hClear
9:52 PM18.3 °C12.8 °C70 %1014.6 hPa16.1 kmNNE (30°)11.1 km/hClear
10:52 PM17.8 °C12.8 °C73 %1015.6 hPa16.1 kmNorth (10°)7.4 km/hClear
11:52 PM17.2 °C12.8 °C75 %1015.6 hPa16.1 kmNorth (360°)7.4 km/hPartly Cloudy
Hourly data recorded from KPWK, located 0 kilometers away from Chicago, Illinois







STORIES FROM OUR PARTNERS